Aérodrome :
LOGIN :

S'inscrire | Disclaimer

   EN    FR    IT 

 










Légende :    VFR   VFR Marginal   IFR   IFR Intensif   IFR Très Intensif
Visi : 
Plafond : 
>= 8 km
>= 3000ft
5 à 8 km
1000 à 3000 ft
1500m à 5 km
500 à 1000 ft
800 à 1500m
200 à 500 ft
< 800m
< 200 ft
Symboles :   Orages  Brouillard  Fortes neiges  Fortes précipitations  Vent > 20 kt
SIGMETs :   Divers  Orages  Givrage  Turbulence  Onde Orograph.  Cendres Volcan.







- Altitude de l'aérodrome : 374 ft
- Code IATA : LIS


LPPT - Lisboa Portela

DERNIER METAR :
  • 230000Z 32005KT CAVOK 14/08 Q1025

METARs EXPIRÉS :
  • 222330Z 33007KT CAVOK 14/09 Q1025
  • 222300Z 32007KT CAVOK 14/09 Q1025
  • 222230Z 32009KT CAVOK 14/09 Q1025
  • 222200Z 33009KT CAVOK 14/09 Q1025

TAF TAF LPPT
Valide du 23 à 00h jusqu'au 24 à 06h UTC


222300Z 2300/2406 33010KT CAVOK
BECMG 2304/2307 04007KT
BECMG 2315/2318 33010KT
BECMG 2400/2403 04007KT
Pas de NOTAMs connus pour ce terrain.



MET'MAP, la Météo Aéronautique d'un coup d'oeil ! - Copyright ORBIFLY Décembre 2007 - Disclaimer

ORBIFLY MET'MAP TEAM :

Programmation & Développement : Alexandra Zaïnal
Conception & Développement : Baudouin d'Aumeries
Co-Programmation & Développement : Marc-Olivier Méhu
Soutien technique & logistique : Manuel Goepfert

Contact : metmap@orbifly.com




SOURCES & CREDITS :

   NOAA